Agostonmajor, Hungary

4:47 AM CEST on September 20, 2017 (GMT +0200)
Agostonmajor

Weather History for 12970 - August, 2014

Change the Weather History Date:

Tuesday, August 26, 2014

  Actual Average Record
Temperature  
Mean Temperature 62 °F -  
Max Temperature 76 °F - - ()
Min Temperature 48 °F - - ()
Degree Days  
Heating Degree Days 3    
Growing Degree Days 12 (Base 50)    
Moisture  
Dew Point 50 °F    
Average Humidity 60    
Maximum Humidity 82    
Minimum Humidity 35    
Precipitation  
Precipitation 0.00 in - - ()
Sea Level Pressure  
Sea Level Pressure 29.88 in    
Wind  
Wind Speed 5 mph ()    
Max Wind Speed 13 mph    
Max Gust Speed -    
Visibility 15.5 miles    
Events      
T = Trace of Precipitation, MM = Missing Value Source: Averaged Metar Reports

Daily Weather History Graph

Daily Weather History Graph

Search for Another Location

Airport or City:

Trip Planner

Search our weather history database for the weather conditions in past years. The results will help you decide how hot, cold, wet, or windy it might be!

Date:

Astronomy

Aug. 26, 2014 Rise Set
Actual Time 5:52 AM CEST 7:32 PM CEST
Civil Twilight 5:20 AM CEST 8:04 PM CEST
Nautical Twilight 4:41 AM CEST 8:43 PM CEST
Astronomical Twilight 3:58 AM CEST 9:25 PM CEST
Moon 6:41 AM CEST (8/26) 7:36 PM CEST (8/26)
Length of Visible Light 14h 44m
Length of Day
13h 40m
New Moon, 1% of the Moon is Illuminated
Aug 26
New Moon
Sep 2
First Quarter
Sep 9
Full
Sep 16
Last Quarter
Sep 24
New

Hourly Weather History & Observations

Time (CEST) Temp. Dew Point Humidity Pressure Visibility Wind Dir Wind Speed Gust Speed Precip Events Conditions
12:00 AM 50 °F 45 °F 78% 30.06 in 25 mi Calm Calm - -   Clear
12:15 AM 50.0 °F 44.6 °F 82% 30.04 in - Calm Calm - N/A   Clear
12:45 AM 51.8 °F 44.6 °F 76% 30.04 in - Calm Calm - N/A   Clear
1:00 AM 51 °F 44 °F 70% 30.06 in 25 mi Calm Calm - -   Clear
1:15 AM 50.0 °F 44.6 °F 82% 30.04 in - SE 2.2 mph - N/A   Clear
1:45 AM 50.0 °F 42.8 °F 76% 30.01 in - SE 2.2 mph - N/A   Clear
2:00 AM 63 °F 55 °F 69% 29.80 in 25 mi SSW 4.5 mph - -   Partly Cloudy
2:15 AM 50.0 °F 42.8 °F 76% 30.01 in - SSE 2.2 mph - N/A   Clear
2:45 AM 50.0 °F 42.8 °F 76% 30.01 in - SE 2.2 mph - N/A   Clear
3:00 AM 50 °F 43 °F 70% 30.02 in 25 mi SE 2.2 mph - -   Clear
3:15 AM 51.8 °F 44.6 °F 76% 29.98 in - SSE 4.5 mph - N/A   Clear
3:45 AM - - N/A% - 6.2 mi SSE 8.9 mph - N/A   Clear
4:00 AM 51 °F 45 °F 72% 29.99 in 25 mi SSE 4.5 mph - -   Clear
4:15 AM 50.0 °F 44.6 °F 82% 29.98 in - SE 2.2 mph - N/A   Clear
4:45 AM 50.0 °F 44.6 °F 82% 29.95 in - Calm Calm - N/A   Clear
5:00 AM 50 °F 44 °F 73% 29.98 in 19 mi Calm Calm - -   Clear
6:00 AM 52 °F 43 °F 63% 29.96 in 25 mi SSE 4.5 mph - -   Scattered Clouds
6:15 AM 51.8 °F 42.8 °F 71% 29.95 in - SSE 4.5 mph - N/A   Clear
6:45 AM 51.8 °F 42.8 °F 71% 29.92 in - SSE 4.5 mph - N/A   Clear
7:00 AM 52 °F 44 °F 64% 29.94 in 19 mi SSE 4.5 mph - -   Scattered Clouds
7:15 AM 53.6 °F 44.6 °F 72% 29.92 in - SSE 4.5 mph - N/A   Clear
7:45 AM 55.4 °F 46.4 °F 72% 29.92 in - SSE 4.5 mph - N/A   Clear
8:00 AM 55 °F 46 °F 63% 29.93 in 19 mi SSE 4.5 mph - -   Mostly Cloudy
8:15 AM 55.4 °F 46.4 °F 72% 29.89 in - SSE 6.7 mph - N/A   Clear
8:45 AM 59.0 °F 48.2 °F 67% 29.89 in - SSE 8.9 mph - N/A   Clear
9:00 AM 58 °F 48 °F 61% 29.91 in 19 mi SSE 8.9 mph - -   Mostly Cloudy
9:15 AM 59.0 °F 50.0 °F 72% 29.89 in - SSE 6.7 mph - N/A   Clear
9:45 AM - - N/A% - - South 8.9 mph - N/A   Clear
10:00 AM 61 °F 50 °F 59% 29.90 in 16 mi South 6.7 mph - -   Mostly Cloudy
10:15 AM 62.6 °F 48.2 °F 59% 29.89 in - SSE 6.7 mph - N/A   Clear
10:45 AM 62.6 °F 50.0 °F 63% 29.89 in - South 6.7 mph - N/A   Clear
11:00 AM 63 °F 50 °F 52% 29.90 in 19 mi South 6.7 mph - -   Overcast
11:15 AM 64.4 °F 51.8 °F 64% 29.86 in - SSE 8.9 mph - N/A   Clear
11:45 AM 68.0 °F 53.6 °F 60% 29.86 in - South 6.7 mph - N/A   Clear
12:00 PM 68 °F 53 °F 48% 29.87 in 19 mi South 6.7 mph - -   Partly Cloudy
12:15 PM 69.8 °F 53.6 °F 56% 29.86 in - South 11.2 mph - N/A   Clear
12:45 PM 73.4 °F 53.6 °F 50% 29.86 in - SSW 8.9 mph - N/A   Clear
1:00 PM 73 °F 54 °F 41% 29.85 in 19 mi SSW 8.9 mph - -   Scattered Clouds
1:45 PM 75.2 °F 51.8 °F 44% 29.83 in - WSW 8.9 mph - N/A   Clear
2:00 PM 74 °F 52 °F 36% 29.83 in 22 mi WSW 8.9 mph - -   Partly Cloudy
2:15 PM 75.2 °F 51.8 °F 44% 29.83 in - WSW 8.9 mph - N/A   Clear
2:45 PM 73.4 °F 51.8 °F 47% 29.83 in - WSW 8.9 mph - N/A   Clear
3:00 PM 74 °F 52 °F 35% 29.82 in 25 mi WSW 8.9 mph - -   Partly Cloudy
3:15 PM 77.0 °F 55.4 °F 47% 29.80 in - SW 8.9 mph - N/A   Clear
3:45 PM - - N/A% - 6.2 mi SW 8.9 mph - N/A   Overcast
4:00 PM 76 °F 56 °F 39% 29.81 in 25 mi SW 8.9 mph - -   Scattered Clouds
4:15 PM 77.0 °F 55.4 °F 47% 29.80 in - SW 8.9 mph - N/A   Clear
4:45 PM 75.2 °F 55.4 °F 50% 29.80 in - WSW 11.2 mph - N/A   Clear
5:00 PM 76 °F 55 °F 38% 29.80 in 25 mi WSW 11.2 mph - -   Partly Cloudy
5:15 PM 75.2 °F 55.4 °F 50% 29.80 in - WSW 8.9 mph - N/A   Clear
5:45 PM 75.2 °F 53.6 °F 47% 29.80 in - West 13.4 mph - N/A   Clear
6:00 PM 75 °F 54 °F 38% 29.80 in 19 mi West 13.4 mph - -   Partly Cloudy
6:15 PM 75.2 °F 55.4 °F 50% 29.80 in - WSW 8.9 mph - N/A   Clear
6:45 PM 75.2 °F 53.6 °F 47% 29.80 in - West 11.2 mph - N/A   Clear
7:00 PM 74 °F 54 °F 40% 29.80 in 31 mi West 11.2 mph - -   Scattered Clouds
7:15 PM 73.4 °F 55.4 °F 53% 29.80 in - WSW 6.7 mph - N/A   Clear
7:45 PM 71.6 °F 55.4 °F 57% 29.80 in - West 6.7 mph - N/A   Clear
8:00 PM 72 °F 55 °F 45% 29.81 in 31 mi West 6.7 mph - -   Partly Cloudy
8:15 PM 69.8 °F 55.4 °F 60% 29.80 in - SSW 4.5 mph - N/A   Clear
8:45 PM 69.8 °F 55.4 °F 60% 29.83 in - West 6.7 mph - N/A   Clear
9:00 PM 70 °F 55 °F 49% 29.82 in 31 mi West 6.7 mph - -   Partly Cloudy
9:15 PM 68.0 °F 55.4 °F 64% 29.83 in - WSW 4.5 mph - N/A   Clear
9:45 PM - - N/A% - 6.2 mi WSW 6.7 mph - N/A   Overcast
10:00 PM 69 °F 55 °F 51% 29.82 in 31 mi WSW 6.7 mph - -   Mostly Cloudy
10:15 PM 69.8 °F 55.4 °F 60% 29.80 in - WSW 4.5 mph - N/A   Clear
10:45 PM 68.0 °F 55.4 °F 64% 29.83 in - WSW 4.5 mph - N/A   Clear
11:00 PM 68 °F 55 °F 53% 29.83 in 31 mi WSW 4.5 mph - -   Scattered Clouds
11:15 PM 66.2 °F 55.4 °F 68% 29.80 in - SW 4.5 mph - N/A   Clear
11:45 PM 64.4 °F 55.4 °F 73% 29.80 in - SSW 4.5 mph - N/A   Clear